Regional Weather Roundup
Issued by NWS Upton, NY

Home | Current Version | Previous Version | Text Only | Print | Product List | Glossary On
Versions: 1 2 3 4 5 6 7 8 9 10 11 12 13 14 15 16 17 18 19 20 21 22 23 24 25 26 27 28 29 30 31 32 33 34 35 36 37 38 39 40 41 42 43 44 45 46 47 48 49 50
000
ASUS41 KOKX 300605
RWROKX

REGIONAL WEATHER ROUNDUP
NATIONAL WEATHER SERVICE NEW YORK NY
200 AM EDT TUE SEP 30 2014

NOTE: "FAIR" INDICATES FEW OR NO CLOUDS BELOW 12,000 FEET WITH NO
SIGNIFICANT WEATHER AND/OR OBSTRUCTIONS TO VISIBILITY.

NYZ071-072-176-178-NJZ106-104-300700-
NEW YORK CITY METRO AREA


CITY           SKY/WX    TMP DP  RH WIND       PRES   REMARKS
CENTRAL PARK   CLOUDY    69  57  65 CALM      29.96R
LAGUARDIA APRT CLOUDY    71  58  63 SW3       29.92S
KENNEDY INTL   CLOUDY    68  62  81 SW6       29.94R
NEWARK/LIBERTY CLOUDY    68  60  75 SW5       29.93S
BRNX BOT. GARD   N/A     70  59  68 NW2       29.95S
TETERBORO      CLOUDY    68  59  73 CALM      29.92S
$$

NYZ177-179-078>081-300700-
LONG ISLAND NEW YORK

CITY           SKY/WX    TMP DP  RH WIND       PRES   REMARKS
FARMINGDALE    CLOUDY    68  65  90 SW3       29.94R
ISLIP          CLOUDY    68  65  90 CALM      29.92R
SHIRLEY        LGT RAIN  67  66  97 CALM      29.94S FOG
WESTHAMPTON    CLOUDY    67  64  90 SE3       29.96R FOG
MONTAUK POINT    N/A     64  62  93 NE8       29.97F
$$

NYZ052-065-067-300700-
HUDSON VALLEY

CITY           SKY/WX    TMP DP  RH WIND       PRES   REMARKS
WHITE PLAINS   CLOUDY    64  62  93 CALM      29.94R FOG
NEWBURGH       CLOUDY    63  61  94 CALM      29.95R
MONTGOMERY     CLOUDY    59  57  93 CALM      29.93R
POUGHKEEPSIE   CLOUDY    62  59  90 CALM      29.92R
ALBANY         FOG       58  56  93 CALM      29.94R VSB 1/2
$$

NJZ001-105-106-008-010-013-015-019>022-104-300700-
NEW JERSEY

CITY           SKY/WX    TMP DP  RH WIND       PRES   REMARKS
NEWARK/LIBERTY CLOUDY    68  60  75 SW5       29.93S
TETERBORO      CLOUDY    68  59  73 CALM      29.92S
CALDWELL       CLOUDY    66  58  75 CALM      29.94R
MORRISTOWN     CLOUDY    63  59  88 CALM      29.94R
SOMERVILLE     CLOUDY    62  59  90 CALM      29.92S
LINDEN         CLOUDY    72  64  75 CALM      29.95R
SUSSEX         CLOUDY    59  57  93 CALM      29.94R
ANDOVER          N/A     58  57  97 CALM      29.94S
TRENTON        CLOUDY    65  62  90 CALM      29.93S FOG
MILLVILLE      CLOUDY    64  62  93 CALM      29.94S
ATLANTIC CITY  LGT RAIN  64  54  69 NW5       29.94S
WRIGHTSTOWN    CLOUDY    63  63 100 CALM      29.92S
TOMS RIVER     CLOUDY    64  63  94 CALM      29.95S
BELMAR         CLOUDY    64  59  82 CALM      29.95R
$$

PAZ047>061-062-071-300700-
EASTERN PENNSYLVANIA

CITY           SKY/WX    TMP DP  RH WIND       PRES   REMARKS
PHILADELPHIA   CLOUDY    66  62  87 SE3       29.94R
ALLENTOWN      MOCLDY    61  58  90 CALM      29.93R FOG
SCRANTON       PTCLDY    60  56  86 E3        29.93R
$$

CTZ002-004>006-009-010-012-RIZ004-006-007-MAZ004-011-015-300700-
SOUTHERN NEW ENGLAND
 IN CT

CITY           SKY/WX    TMP DP  RH WIND       PRES   REMARKS
BRADLEY INTL   CLOUDY    62  56  80 NE9       29.97S
HARTFORD       CLOUDY    63  59  87 E8        29.97R
DANBURY        CLOUDY    64  61  90 CALM      29.96R
WTRBRY/OXFORD  CLOUDY    64  61  88 E6        29.97S
BRIDGEPORT     CLOUDY    68  66  93 E13       29.93S
MERIDEN        CLOUDY    65  60  84 N7        29.96R
NEW HAVEN      CLOUDY    69  65  86 E7        29.94S
CHESTER        CLOUDY    63  61  94 E5        29.98R FOG
GROTON         CLOUDY    62  60  93 NE10      29.96S
WILLIMANTIC    CLOUDY    60  57  89 NE7       29.99S

 IN RI

CITY           SKY/WX    TMP DP  RH WIND       PRES   REMARKS
PROVIDENCE     CLOUDY    60  56  86 NE8       30.01R
BLOCK ISLAND   CLOUDY    63  59  88 NE8       29.98R
WESTERLY       CLOUDY    61  59  93 NE8       29.99R

 IN MA

CITY           SKY/WX    TMP DP  RH WIND       PRES   REMARKS
BOSTON         LGT RAIN  57  55  93 N8        30.01F
WORCESTER        N/A     54  53  97 NE9       30.01F VSB 1/2
WESTFIELD      CLOUDY    60  54  80 NE7       29.99S
PROVINCETOWN   CLOUDY    61  57  88 N9        29.99R
NANTUCKET      CLOUDY    64  62  93 NE3       29.97S FOG
$$

ANZ330-335-338-340-345-350-353-355-300700-
COASTAL MARINE OBSERVATIONS


STATION/POSITION TIME  SKY/WX   TEMP    WIND        PRES    VSBY  WAVE
                                AIR SEA DIR/SP/G                  HT/PER
                 (UTC)          (F)     (DEG/KT/KT) (MB)    (MI)  (FT/S)
NY HARB ENTRANCE 0600            68 68  250/  6/  8 1014.3          2/ 8
4S FIRE IS       0600               69                N/A           2/ 8
20S FIRE ISLAND  0600            68 68  290/  8/ 10 1013.4          2/ 7
23SW MTP         0600                                 N/A           2/ 7
HUDSON CANYON    0600            69 71  300/  4/  4 1013.7          2/ 8
EXECUTION ROCKS  0600            69 69  290/  2/  2   N/A
WESTERN LI SOUND 0600            69     190/  2/  4   N/A           0
CENTRAL LI SOUND 0500            66 69   90/ 16/ 19   N/A           0
EASTERN LI SOUND 0500            64 67   60/ 12/ 16   N/A
ROBBINS REEF     0600            68     250/  7/  8 1012.4
$$


>>>>>>>>>>>>>>>>>>>>>>>>>>>> KEY <<<<<<<<<<<<<<<<<<<<<<<<<<<
>                                                          <
>     SKY/WX - SKY CONDITION/PRESENT WEATHER               <
>     TMP    - TEMPERATURE IN FAHRENHEIT                   <
>     DP     - DEWPOINT IN FAHRENHEIT                      <
>     RH     - RELATIVE HUMIDITY IN PERCENT                <
>     WIND   - DIRECTION AND SPEED IN MPH                  <
>     PRES   - MEAN SEA LEVEL PRESSURE IN INCHES OF HG     <
>     WCI    - WIND CHILL INDEX                            <
>     VSB    - VISIBILITY IN MILES                         <
>     HX     - HEAT INDEX                                  <
>     TC     - TEMPERATURE IN CELSIUS                      <
>     VRB    - VARIABLE WIND DIRECTION                     <
>                                                          <
>>>>>>>>>>>>>>>>>>>>>>>>>>>> KEY <<<<<<<<<<<<<<<<<<<<<<<<<<<





USA.gov is the U.S. government's official web portal to all federal, state and local government web resources and services.